THOR ABLESTAR DEB, 354

Orbit data source: Space-Track

THOR ABLESTAR DEB, 354 is space debris in LEO originally from a launch on Thu, 29 Jun 1961 UTC launched from the Air Force Eastern Test Range (AFETR). Debris objects in space refer to the collection of defunct objects orbiting the Earth. Examples of debris include non-operational satellites, rocket bodies, and fragments generated from explosions, collisions, or faulty payload assembly.

Loading next visibility...
Identifier
354, 1961-015DU
Orbit
LEO
Country
Flag of USUS
Related business
Manufacturer
Unknown
Mission
Spacecraft
Bus & Motor
Unknown
Mass
Unknown
Launch date (UTC)
1961-06-29 (64 years ago)
Launch vehicle
Unknown
Launch site
Air Force Eastern Test Range (AFETR)
Object type
Payload
Rocket body
Debris
Shape & HBR
Unknown shape, 0.2 m
Radar Cross Section
Small (<0.1 m²)

Expand to show TLE details & history
Last TLE update: 21 hours ago

TLE from 21 hours ago
0 THOR ABLESTAR DEB
1 00354U 61015DU  25346.86814163  .00000322  00000-0  56907-3 0  9999
2 00354  67.0647 159.6513 0161521  79.8857  32.9340 13.49365018452736
Epoch: 2025-12-12T20:50Z
TLE epoch observation values (Epoch: 2025-12-12T20:50:07.436Z)
Latitude
57.50462°
Longitude
-96.0486°
Altitude
982.982 km
Speed
7.416 km/s
True Right ascension
19h 53m 08s
True Declination
57° 21' 12"
Sunlit
Object was in daylight at epoch
Visualization orbit readout
Latitude
Unknown
Longitude
Unknown
Altitude
Unknown
Speed
Unknown
Apparent Right ascension
Unknown
Apparent Declination
Unknown
Sunlit
N/A
Visualization observer readout
Local Sidereal Time
16:17:30
Azimuth
Unknown
Elevation
Unknown
Doppler factor
Unknown
Orbital elements
Apogee altitude
1,193.343 km
Perigee altitude
952.64 km
Semi-major axis
7,451.128 km
Eccentricity
0.01615
Inclination
67.0647°
RAAN
159.6513°
Arg. of periapsis
79.8857°
True anomaly
33.95756°
Mean anomaly
32.934°
Eccentric anomaly
33.44403°
Mean motion
3.37451 °/min
Orbital period
106.68 mins
BSTAR
0.00056907
Loading maneuver chart data...
Computing Atmospheric mass density...

Documentation

Showing up to 5 results
|